DW2513 Weather Reports


Display with metric or nautical units.
time (UTC)temp
F
wind
direction
speed
MPH
gust
MPH
rain 1hr
in
rain 24hr
in
rain mn
in
humidity
%
barometer
mb
20260503231804 49 106 0.0 0.0 0.00 0.00 0.00 32 1003.8
20260503231304 49 88 1.0 3.0 0.00 0.00 0.00 30 1003.8
20260503230304 50 165 0.0 0.0 0.00 0.00 0.00 31 1003.7
20260503225804 50 165 0.0 0.0 0.00 0.00 0.00 30 1003.7
20260503224304 50 183 0.0 3.0 0.00 0.00 0.00 30 1003.7
20260503223804 50 182 2.0 6.0 0.00 0.00 0.00 30 1003.7
20260503223304 50 29 1.0 6.0 0.00 0.00 0.00 30 1003.7
20260503222805 50 168 1.0 5.0 0.00 0.00 0.00 31 1003.7
20260503220805 50 175 1.0 5.0 0.00 0.00 0.00 30 1003.6
20260503214305 50 65 1.0 5.0 0.00 0.00 0.00 30 1003.6
20260503213804 50 109 2.0 7.0 0.00 0.00 0.00 30 1003.6
20260503212804 50 146 2.0 7.0 0.00 0.00 0.00 30 1003.5
20260503212305 50 150 1.0 5.0 0.00 0.00 0.00 30 1003.6
20260503211804 50 231 1.0 10.0 0.00 0.00 0.00 29 1003.6
20260503211304 50 128 1.0 6.0 0.00 0.00 0.00 31 1003.6
20260503205804 50 154 3.0 9.0 0.00 0.00 0.00 30 1003.6
20260503205304 50 158 1.0 3.0 0.00 0.00 0.00 31 1003.6
20260503204304 49 236 1.0 7.0 0.00 0.00 0.00 31 1003.6
20260503203805 50 74 0.0 2.0 0.00 0.00 0.00 31 1003.6
20260503202804 50 118 3.0 7.0 0.00 0.00 0.00 30 1003.6
20260503202304 50 167 2.0 6.0 0.00 0.00 0.00 30 1003.6
20260503201805 50 150 1.0 6.0 0.00 0.00 0.00 31 1003.6
20260503200804 50 166 2.0 7.0 0.00 0.00 0.00 30 1003.6
20260503195805 50 91 1.0 6.0 0.00 0.00 0.00 30 1003.6
20260503194304 50 113 2.0 10.0 0.00 0.00 0.00 29 1003.6
20260503193804 50 110 4.0 12.0 0.00 0.00 0.00 29 1003.7
20260503192805 49 145 2.0 6.0 0.00 0.00 0.00 30 1003.7
20260503192305 49 48 2.0 6.0 0.00 0.00 0.00 30 1003.7
20260503191805 49 32 1.0 10.0 0.00 0.00 0.00 31 1003.7
20260503190805 49 224 3.0 10.0 0.00 0.00 0.00 30 1003.7
20260503184304 49 146 1.0 7.0 0.00 0.00 0.00 30 1003.5
20260503183304 49 135 4.0 12.0 0.00 0.00 0.00 32 1003.5
20260503182804 49 155 5.0 10.0 0.00 0.00 0.00 31 1003.2
20260503182305 50 207 4.0 7.0 0.00 0.00 0.00 30 1003.2
20260503181804 50 163 2.0 6.0 0.00 0.00 0.00 30 1003.2
20260503181304 51 91 2.0 12.0 0.00 0.00 0.00 28 1003.2
20260503180305 50 60 1.0 10.0 0.00 0.00 0.00 26 1003.2
20260503175805 50 97 2.0 10.0 0.00 0.00 0.00 27 1003.2
20260503175305 51 339 2.0 7.0 0.00 0.00 0.00 26 1003.2
20260503174804 51 69 1.0 12.0 0.00 0.00 0.00 29 1003.2
20260503173804 50 66 0.0 7.0 0.00 0.00 0.00 28 1003.2
20260503173304 50 96 1.0 5.0 0.00 0.00 0.00 28 1003.2
20260503172804 50 137 3.0 9.0 0.00 0.00 0.00 27 1003.2
20260503170304 50 169 2.0 7.0 0.00 0.00 0.00 28 1003.6
20260503150804 46 9 3.0 12.0 0.00 0.03 0.00 39 1004.2
20260503150304 46 144 1.0 3.0 0.00 0.03 0.00 40 1004.2
20260503131304 44 205 1.0 6.0 0.00 0.03 0.00 54 1004.7
20260503130805 44 33 2.0 6.0 0.00 0.03 0.00 55 1004.7
20260503080804 38 180 0.0 0.0 0.00 0.07 0.00 78 1005.7
20260503080305 38 180 0.0 0.0 0.00 0.07 0.00 78 1005.7
20260503072305 37 180 0.0 0.0 0.00 0.08 0.00 77 1005.7
20260503071305 37 180 0.0 0.0 0.00 0.08 0.00 76 1006.1
20260503070804 38 180 0.0 0.0 0.00 0.08 0.00 77 1006.1
20260503070305 38 180 0.0 0.0 0.00 0.08 0.00 76 1006.1
20260503054804 39 180 0.0 0.0 0.00 0.13 0.00 76 1006.3
20260503052804 39 180 0.0 0.0 0.00 0.15 0.00 74 1006.9
20260503051804 39 180 0.0 0.0 0.00 0.15 0.00 73 1006.9
20260503044305 40 180 0.0 0.0 0.00 0.17 0.00 71 1006.9
20260503043805 40 180 0.0 0.0 0.00 0.17 0.00 71 1006.9
20260503042805 40 180 0.0 0.0 0.00 0.17 0.00 71 1007.3
20260503041804 41 180 0.0 0.0 0.00 0.17 0.00 70 1007.3
20260503041304 41 180 0.0 0.0 0.00 0.17 0.00 70 1007.3
20260503040305 41 180 0.0 0.0 0.00 0.17 0.00 69 1007.3
20260503035804 41 180 0.0 0.0 0.00 0.17 0.17 68 1007.3
20260503035305 41 180 0.0 0.0 0.00 0.17 0.17 68 1007.4
20260503034805 41 180 0.0 0.0 0.00 0.17 0.17 67 1007.4
20260503034305 41 180 0.0 0.0 0.00 0.17 0.17 67 1007.8
20260503032804 41 180 0.0 0.0 0.00 0.17 0.17 66 1007.8
20260503032305 41 180 0.0 0.0 0.00 0.17 0.17 65 1007.8
20260503030304 42 180 0.0 0.0 0.00 0.17 0.17 66 1007.8
20260503025804 42 180 0.0 0.0 0.00 0.17 0.17 66 1007.8
20260503025305 42 180 0.0 0.0 0.00 0.17 0.17 65 1007.8
20260503024804 43 180 0.0 0.0 0.00 0.17 0.17 65 1007.8
20260503023804 43 180 0.0 0.0 0.00 0.17 0.17 62 1007.8
20260503023305 43 180 0.0 0.0 0.00 0.17 0.17 60 1007.8
20260503022305 44 180 0.0 0.0 0.00 0.17 0.17 60 1007.8
20260503021304 44 180 0.0 0.0 0.00 0.17 0.17 60 1007.8
20260503020805 44 188 0.0 0.0 0.00 0.17 0.17 60 1007.8
20260503020305 44 188 0.0 0.0 0.00 0.17 0.17 60 1007.8
20260503013305 45 155 0.0 0.0 0.00 0.17 0.17 64 1007.8
20260503012804 45 155 0.0 0.0 0.00 0.17 0.17 63 1007.0
20260503012305 45 155 0.0 0.0 0.00 0.17 0.17 62 1007.0
20260503011804 46 155 0.0 0.0 0.00 0.17 0.17 62 1007.0
20260503010804 46 155 0.0 0.0 0.00 0.17 0.17 58 1007.0
20260503005804 46 153 0.0 0.0 0.00 0.17 0.17 57 1007.0
20260503005305 47 154 0.0 0.0 0.00 0.17 0.17 57 1007.0
20260503003304 48 154 0.0 0.0 0.00 0.17 0.17 55 1007.0
20260503002804 48 154 0.0 0.0 0.00 0.17 0.17 54 1007.0
20260503002305 48 155 1.0 5.0 0.00 0.17 0.17 54 1006.7
20260503001804 49 179 1.0 3.0 0.00 0.17 0.17 54 1006.7
20260503000804 49 182 1.0 3.0 0.00 0.17 0.17 53 1006.4
20260503000304 48 209 0.0 2.0 0.00 0.17 0.17 56 1006.4
20260502232804 49 206 0.0 0.0 0.00 0.17 0.17 71 1005.9
20260502232305 49 206 0.0 0.0 0.00 0.17 0.17 71 1005.9